Regional Weather Roundup
Issued by NWS

Home | Current Version | Previous Version | Text Only | Print | Product List | Glossary On
Versions: 1 2 3 4 5 6 7 8 9 10 11 12 13 14 15 16 17 18 19 20 21 22 23 24 25 26 27 28 29 30 31 32 33 34 35 36 37 38 39 40 41 42 43 44 45 46 47 48 49 50
000
ASUS46 KPQR 222010
RWROR

OREGON REGIONAL WEATHER ROUNDUP
NATIONAL WEATHER SERVICE PORTLAND OR
100 PM PDT FRI AUG 22 2014

NOTE: "FAIR" INDICATES FEW OR NO CLOUDS BELOW 12,000 FEET WITH
NO SIGNIFICANT WEATHER AND/OR OBSTRUCTIONS TO VISIBILITY.

ORZ001>013-222100-
NORTHWEST OREGON


CITY           SKY/WX    TMP DP  RH WIND       PRES   REMARKS
ASTORIA        CLOUDY    63  56  78 W12       30.09R
NEWPORT        PTSUNNY   63  59  88 N9        30.11S
PORTLAND       MOSUNNY   73  55  53 W9        30.03F
VANCOUVER WA   SUNNY     73  54  51 NW10      30.03F
SCAPPOOSE      MOSUNNY   76  55  48 E7        30.02F
HILLSBORO      MOSUNNY   75  52  44 VRB7      30.02F
AURORA         SUNNY     73  54  51 SW3       30.04F
MCMINNVILLE    SUNNY     75  55  49 VRB5      30.04F
SALEM          MOSUNNY   76  52  43 VRB3      30.02F
CORVALLIS      MOSUNNY   75  54  46 NE5       30.05S
EUGENE         MOSUNNY   77  51  40 N10G17    30.03F
$$

ORZ021-028-222100-
SOUTHWEST OREGON


CITY           SKY/WX    TMP DP  RH WIND       PRES   REMARKS
NORTH BEND     MOSUNNY   70  61  73 N13       30.06S
BROOKINGS      CLEAR     74  58  57 NW10      29.98F
ROSEBURG       MOSUNNY   77  52  41 N6        30.00F
SEXTON SUMMIT  SUNNY     65  47  52 VRB5      30.07F
MEDFORD        SUNNY     79  48  33 NW8       29.97F
$$

ORZ009-041-222100-
COLUMBIA GORGE


CITY           SKY/WX    TMP DP  RH WIND       PRES   REMARKS
TROUTDALE      SUNNY     73  53  49 SW7       30.02F
THE DALLES     SUNNY     82  47  29 MISG      29.94F
$$

ORZ029>031-042>050-061>064-222100-
EASTERN OREGON


CITY           SKY/WX    TMP DP  RH WIND       PRES   REMARKS
REDMOND        SUNNY     71  40  32 NW12      30.03F
BEND           PTCLDY    66  37  34 N8        30.05F
KLAMATH FALLS  SUNNY     70  35  27 VRB3      30.02F
LAKEVIEW       SUNNY     73  28  19 SW14      30.02F
HERMISTON      MOSUNNY   79  51  37 VRB7      29.94F
PENDLETON      PTSUNNY   75  49  39 NW8       29.96F
MEACHAM        PTSUNNY   65  47  52 VRB3      30.03S
LA GRANDE      SUNNY     75  43  31 W15       29.95F
BAKER CITY     MOSUNNY   73  39  29 NW17G28   29.96F
BURNS          MOSUNNY   71  33  24 W17       29.99F
ROME             N/A     74  31  20 MISG      29.94F
ONTARIO        SUNNY     81  37  20 MISG      29.88F
$$



USA.gov is the U.S. government's official web portal to all federal, state and local government web resources and services.